Zurück zum Katalog

STARLINK-4213

AktivKommunikationVLEO
NORAD 52872·PAYLOAD·🇺🇸 United States

Gestartet Jun 17, 2022 von Cape Canaveral Space Force Station

Loading…

Nächste Überflüge (nächste 24 Stunden)

TLE

AktuellSource: CelesTrak SupGP

Epoche: Sep 15, 2026, 01:42 UTC

1 52872C 22062AU  26258.07131944 -.00030109  00000+0 -96837-3 0  2586
2 52872  53.1578 230.5349 0001140  79.7354 300.6270 15.31712019    11

Verfolge STARLINK-4213 in Echtzeit mit AllMySat

Download on the App Store